Weather Roundup
Issued by NWS Chicago, IL

Home | Current Version | Previous Version | Text Only | Print | Product List | Glossary Off
Versions: 1 2 3 4 5 6 7 8 9 10 11 12 13 14 15 16 17 18 19 20 21 22 23 24 25 26 27 28 29 30 31 32 33 34 35 36 37 38 39 40 41 42 43 44 45 46 47 48 49 50

000
NZUS59 KLOT 190021
HRRLOT

CHICAGO AREA WEATHER ROUNDUP
NATIONAL WEATHER SERVICE CHICAGO/ROMEOVILLE IL
700 PM CDT SAT APR 18 2015

NOTE: "FAIR" INDICATES FEW OR NO CLOUDS BELOW 12,000 FEET WITH NO
SIGNIFICANT WEATHER AND/OR OBSTRUCTIONS TO VISIBILITY.

* THESE STATIONS ARE NOT UNDER NWS QUALITY CONTROL. THEY ALSO MAY NOT
  REPORT WEATHER SUCH AS PRECIPITATION OR FOG.

ILZ005-006-012>014-019>023-190100-
NORTHEAST ILLINOIS

CITY           SKY/WX    TMP DP  RH WIND       PRES   REMARKS
OHARE          MOCLDY    52  33  48 NE12      30.01F
6HR MIN TEMP:  52; 6HR MAX TEMP:  58;

MIDWAY         MOCLDY    53  34  48 NE13      30.01F
6HR MIN TEMP:  53; 6HR MAX TEMP:  63;

AURORA         PTCLDY    61  36  39 NE14      29.98F
6HR MIN TEMP:  61; 6HR MAX TEMP:  72;

LANSING*       MOCLDY    46  35  67 N8        30.02S
JOLIET*        PTCLDY    60  39  45 NE12      29.98S
WAUKEGAN       PTCLDY    49  31  49 N15G21    30.02F
6HR MIN TEMP:  49; 6HR MAX TEMP:  57;

DUPAGE AIRPORT PTCLDY    57  35  43 NE12      29.99F
6HR MIN TEMP:  57; 6HR MAX TEMP:  66;

WHEELING       MOCLDY    50  32  50 NE10      30.03F
6HR MIN TEMP:  50; 6HR MAX TEMP:  57;

KANKAKEE*      MOCLDY    56  40  55 NE13G18   29.97S
MORRIS*        PTCLDY    62  40  44 E9        29.96R
LEWIS AIRPORT* PTCLDY    57  35  43 E18       29.99S
NORTHERLY IS     N/A     44  36  73 N15         N/A
$$

WIZ051-052-058>065-066-070>072-190100-
SOUTHEAST WISCONSIN

CITY           SKY/WX    TMP DP  RH WIND       PRES   REMARKS
MILWAUKEE      PTCLDY    45  31  58 N22G31    30.07F
6HR MIN TEMP:  44; 6HR MAX TEMP:  48;

KENOSHA*       PTCLDY    48  33  56 NE16G26   30.03F
RACINE*        CLEAR     43  33  68 N18       30.06F
BURLINGTON     CLEAR     51  28  41 NE9G17    30.03F
WAUKESHA       PTCLDY    54  30  40 E9G16     30.06F
WEST BEND      CLEAR     50  27  40 NE14G20   30.07F
$$

INZ001>003-010>013-019-020-190100-
NORTHWEST INDIANA

CITY           SKY/WX    TMP DP  RH WIND       PRES   REMARKS
GARY*          MOCLDY    45  34  65 N6G20     30.03F
MICHIGAN CITY* NOT AVBL
RENSSELAER*    NOT AVBL
VALPARAISO     MOCLDY    51  36  56 N8        29.99F
$$

LMZ740>746-190100-
SOUTHERN LAKE MICHIGAN

STATION/POSITION TIME  SKY/WX   TEMP WIND        PRES    VSBY
                                AIR  DIR/SP/G
                 (UTC)          (F)  (DEG/KT/KT) (MB)    (MI)
HARRISON CRIB    0000            41  350/ 15/ 18   N/A
BURNHAM HARBOR   0000            44  360/ 13/ 16   N/A
CALUMET HARBOR   2300            44  350/ 12/ 17   N/A
BURNS HARBOR     2300            42  330/  5/  6 1017.6F
MICHIGAN CITY    0000            43  290/  5/  6   N/A
$$

ABBREVIATIONS USED IN REMARKS
   TC - TEMPERATURE IN CELSIUS
  WCI - WIND CHILL INDEX
   HX - HEAT INDEX
  VSB - VISIBILITY
$$



USA.gov is the U.S. government's official web portal to all federal, state and local government web resources and services.